#timestamp,LO_Frequency,Hit,StdDev 
1572800415.3,286047002.6,N
1572800435.1,286047001.5,N
1572800455.9,286047002.4,N
1572800475.7,286047001.8,N
1572800495.6,286046999.8,N
1572800515.4,286047000.1,N
1572800535.2,286047002.7,N
1572800555.1,286047000.0,N
1572800556.0,286047000.0,N
1572800575.8,286047000.1,N
1572800595.6,286047002.4,N
1572800615.5,286047002.6,N
1572800635.3,286047002.3,N
1572800655.1,286047002.7,N
1572800675.9,286047002.7,N
1572800695.7,286047002.8,N
1572800715.6,286047002.3,N
1572800735.4,286046999.7,N
1572800755.2,286047004.4,N
1572800775.1,286047005.7,Y
1572800776.0,286047005.7,P
1572800795.8,286047001.9,N
1572800815.7,286047004.4,N
1572800835.5,286047001.7,N
1572800855.3,286047003.9,N
1572800875.2,286047004.0,N
1572800895.9,286047001.3,N
1572800915.7,286047004.4,N
1572800935.6,286047003.3,N
1572800955.4,286047003.8,N
1572800975.3,286047002.0,N
1572800995.1,286047000.2,N
1572800996.0,286047000.2,N
1572801015.8,286046999.7,N
1572801035.7,286047000.4,N
1572801055.5,286047000.3,N
1572801075.3,286047000.2,N
1572801095.2,286047001.0,N
1572801115.0,286047000.8,N
1572801115.9,286047000.8,N
1572801135.8,286046998.7,N
1572801155.6,286046998.4,N
1572801175.4,286046998.1,N
1572801195.3,286047000.5,N
1572801215.1,286046999.8,N
1572801216.0,286046999.8,N
1572801235.8,286047001.4,N
1572801255.7,286047004.3,N
1572801275.5,286047001.7,N
1572801295.3,286047001.3,N
1572801315.2,286047001.9,N
1572801335.0,286047003.9,N
1572801335.9,286047003.9,N
1572801355.8,286047001.6,N
1572801375.6,286047001.9,N
1572801395.4,286047004.0,N
1572801415.3,286047004.4,N
1572801435.1,286047001.7,N
1572801455.9,286047003.1,N
1572801475.7,286047001.8,N
1572801495.5,286047004.2,N
1572801515.4,286047004.0,N
1572801535.2,286047003.9,N
1572801555.0,286047004.0,N
1572801555.9,286047004.0,N
1572801575.8,286047004.3,N
1572801595.6,286047003.8,N
1572801615.5,286047004.1,N
1572801635.3,286047004.1,N
1572801655.1,286047001.5,N
1572801675.9,286047002.3,N
1572801695.7,286047000.2,N
1572801715.5,286047000.3,N
1572801735.4,286047002.4,N
1572801755.2,286047000.0,N
1572801775.0,286047000.2,N
1572801776.0,286047000.2,N
1572801795.8,286047002.6,N
1572801815.6,286047002.5,N
1572801835.5,286047001.4,N
1572801855.3,286047002.2,N
1572801875.1,286047001.4,N
1572801895.9,286047004.3,N
1572801915.7,286047003.9,N
1572801935.5,286047001.3,N
1572801955.4,286047001.8,N
1572801975.2,286047002.2,N
1572801995.1,286046999.9,N
1572801996.0,286046999.9,N
1572802015.8,286047001.9,N
1572802035.6,286047001.5,N
1572802055.5,286047003.7,N
1572802075.3,286047001.4,N
1572802095.2,286047004.0,N
1572802115.9,286047004.1,N
1572802135.7,286047003.4,N
1572802155.6,286047004.0,N
1572802175.4,286047005.8,Y
1572802195.2,286047001.3,P
1572802215.1,286047000.1,N
1572802216.0,286047000.1,N
1572802235.8,286047000.5,N
1572802255.7,286047001.6,N
1572802275.5,286047002.1,N
1572802295.3,286047002.2,N
1572802315.2,286047001.6,N
1572802335.0,286047002.2,N
1572802335.9,286047002.2,N
1572802355.7,286047000.5,N
1572802375.6,286047001.2,N
1572802395.4,286047001.1,N
1572802415.3,286047000.6,N
1572802435.1,286047000.1,N
1572802436.0,286047000.1,N
1572802455.8,286047000.6,N
1572802475.7,286046998.4,N
1572802495.5,286046999.4,N
1572802515.3,286046998.4,N
1572802535.2,286047000.6,N
1572802555.0,286046999.7,N
1572802555.9,286046999.7,N
1572802575.8,286046998.5,N
1572802595.6,286046999.9,N
1572802615.4,286047000.9,N
1572802635.3,286047000.3,N
1572802655.1,286047000.2,N
1572802675.9,286047000.0,N
1572802695.7,286047000.4,N
1572802715.5,286046998.2,N
1572802735.4,286046998.5,N
1572802755.2,286047000.3,N
1572802775.0,286047000.3,N
1572802775.9,286047000.3,N
1572802795.8,286046999.7,N
1572802815.6,286047000.3,N
1572802835.5,286047002.8,N
1572802855.3,286047001.0,N
1572802875.1,286046998.6,N
1572802895.9,286046999.4,N
1572802915.7,286046999.0,N
1572802935.6,286046998.6,N
1572802955.4,286046996.6,Y
1572802975.2,286046996.9,P
1572802995.1,286046997.0,N
1572802996.0,286046997.0,N
1572803015.8,286046996.6,N
1572803035.6,286046999.5,N
1572803055.5,286046996.7,N
1572803075.3,286046998.5,N
1572803095.2,286046999.2,N
1572803115.9,286046999.6,N
1572803135.7,286046999.4,N
1572803155.6,286046998.9,N
1572803175.4,286047000.3,N
1572803195.2,286047001.1,N
1572803215.1,286046999.9,N
1572803216.0,286046999.9,N
1572803235.8,286047000.9,N
1572803255.7,286047000.3,N
1572803275.5,286046998.3,N
1572803295.3,286046999.2,N
1572803315.2,286046999.1,N
1572803335.0,286046996.6,N
1572803335.9,286046996.6,N
1572803355.7,286046997.2,N
1572803375.6,286046994.9,Y
1572803395.4,286046997.0,P
1572803415.3,286046997.3,P
1572803435.1,286046996.8,P
1572803436.0,286046996.8,Y
1572803455.8,286047002.2,P
1572803475.7,286047003.2,N
1572803495.5,286047004.4,N
1572803515.4,286047004.0,N
1572803535.2,286047004.4,N
1572803555.0,286047001.7,N
1572803555.9,286047001.7,N
1572803575.8,286047002.1,N
1572803595.6,286047001.3,N
1572803615.4,286047001.4,N
1572803635.3,286047002.8,N
1572803655.1,286046999.9,N
1572803675.9,286047002.7,N
1572803695.7,286047000.2,N
1572803715.5,286047000.8,N
1572803735.4,286046998.5,N
1572803755.2,286047001.2,N
1572803775.0,286047000.6,N
1572803775.9,286047000.6,N
1572803795.8,286047000.1,N
1572803815.6,286047002.6,N
1572803835.4,286047003.1,N
1572803855.3,286047001.4,N
1572803875.1,286047001.8,N
1572803895.9,286047000.2,N
1572803915.7,286047002.2,N
1572803935.5,286047001.9,N
1572803955.4,286047000.1,N
1572803975.2,286046999.9,N
1572803995.0,286047000.2,N
1572803996.0,286047000.2,N
